Location: 22
(39.7117°N, 89.5929°W)
Time: 06:50:51
(UTC-05:00)

A-11 Canister half - Pass Details

Date: 04 February 2023
Orbit: 1526 x 1682 km, 47.3° (Epoch: 01 April)

Event Time Altitude Azimuth Distance (km) Brightness Sun altitude
Exits shadow 06:24:20 - 252° (WSW) 4,509 10.9 -8.0°
Reaches altitude 10° 06:26:53 10° 254° (WSW) 3,689 10.5 -7.5°
Maximum altitude 06:36:09 71° 338° (NNW) 1,608 9.0 -5.8°
Drops below altitude 10° 06:45:35 10° 63° (ENE) 3,746 11.8 -4.1°
Sets 06:48:44 0° 66° (ENE) 4,749 12.4 -3.5°
